• en France
  • Liste des pays
  • À 7 jours
  • Température de l'eau
  • Carte satellitaire
  • Carte météo
  • Widgets météo
  • user-avatar
    Se connecter

    Météo par heure à Valledupar

    Ce jour, 21 Février, Mercredi

    Heure Température Précipitation Vent Pression Humidité
    00:00 +27°C° 0,1 mm 3 m/s 745 mmHg 76%
    01:00 +27°C° 0,1 mm 3 m/s 745 mmHg 77%
    02:00 +27°C° 0 mm 3 m/s 745 mmHg 76%
    03:00 +26°C° 0 mm 3 m/s 745 mmHg 75%
    04:00 +26°C° 0 mm 2 m/s 745 mmHg 75%
    05:00 +26°C° 0 mm 2 m/s 745 mmHg 73%
    06:00 +27°C° 0 mm 2 m/s 745 mmHg 72%
    07:00 +27°C° 0 mm 2 m/s 746 mmHg 71%
    08:00 +29°C° 0 mm 2 m/s 746 mmHg 62%
    09:00 +31°C° 0 mm 3 m/s 746 mmHg 54%
    10:00 +34°C° 0 mm 3 m/s 747 mmHg 46%
    11:00 +35°C° 0 mm 3 m/s 746 mmHg 42%
    12:00 +36°C° 0 mm 3 m/s 745 mmHg 39%
    13:00 +37°C° 0 mm 3 m/s 745 mmHg 35%
    14:00 +37°C° 0 mm 3 m/s 744 mmHg 37%
    15:00 +36°C° 0 mm 3 m/s 743 mmHg 39%
    16:00 +36°C° 0 mm 3 m/s 743 mmHg 40%
    17:00 +34°C° 0 mm 3 m/s 743 mmHg 50%
    18:00 +31°C° 0 mm 3 m/s 743 mmHg 59%
    19:00 +28°C° 0 mm 3 m/s 744 mmHg 68%
    20:00 +28°C° 0 mm 3 m/s 744 mmHg 71%
    21:00 +28°C° 0 mm 2 m/s 745 mmHg 74%
    22:00 +27°C° 0 mm 2 m/s 745 mmHg 77%
    23:00 +27°C° 0 mm 2 m/s 745 mmHg 78%

    Demain, 22 Février, Jeudi

    Heure Température Précipitation Vent Pression Humidité
    00:00 +27°C° 0 mm 2 m/s 745 mmHg 79%
    01:00 +26°C° 0 mm 2 m/s 745 mmHg 80%
    02:00 +26°C° 0 mm 2 m/s 745 mmHg 80%
    03:00 +26°C° 0 mm 2 m/s 745 mmHg 81%
    04:00 +26°C° 0 mm 2 m/s 745 mmHg 81%
    05:00 +26°C° 0 mm 2 m/s 745 mmHg 79%
    06:00 +26°C° 0 mm 2 m/s 746 mmHg 77%
    07:00 +26°C° 0 mm 2 m/s 746 mmHg 74%
    08:00 +28°C° 0 mm 2 m/s 747 mmHg 66%
    09:00 +30°C° 0 mm 2 m/s 747 mmHg 57%
    10:00 +33°C° 0 mm 3 m/s 748 mmHg 48%
    11:00 +34°C° 0 mm 3 m/s 747 mmHg 46%
    12:00 +35°C° 0 mm 3 m/s 746 mmHg 44%
    13:00 +36°C° 0 mm 3 m/s 745 mmHg 42%
    14:00 +35°C° 0 mm 3 m/s 744 mmHg 44%
    15:00 +35°C° 0 mm 3 m/s 743 mmHg 45%
    16:00 +34°C° 0 mm 3 m/s 743 mmHg 46%
    17:00 +31°C° 0 mm 3 m/s 743 mmHg 52%
    18:00 +30°C° 0 mm 2 m/s 744 mmHg 58%
    19:00 +28°C° 0 mm 2 m/s 744 mmHg 64%
    20:00 +28°C° 0 mm 2 m/s 744 mmHg 68%
    21:00 +27°C° 0 mm 2 m/s 745 mmHg 72%
    22:00 +27°C° 0 mm 2 m/s 746 mmHg 76%
    23:00 +26°C° 0 mm 2 m/s 745 mmHg 78%

    Après-demain, 23 Février, Vendredi

    Heure Température Précipitation Vent Pression Humidité
    00:00 +26°C° 0 mm 2 m/s 745 mmHg 80%
    01:00 +26°C° 0 mm 2 m/s 745 mmHg 82%
    02:00 +26°C° 0 mm 2 m/s 745 mmHg 82%
    03:00 +25°C° 0 mm 2 m/s 745 mmHg 82%
    04:00 +25°C° 0 mm 2 m/s 744 mmHg 83%
    05:00 +25°C° 0 mm 2 m/s 745 mmHg 81%
    06:00 +26°C° 0 mm 2 m/s 745 mmHg 79%
    07:00 +26°C° 0 mm 2 m/s 746 mmHg 77%
    08:00 +28°C° 0 mm 2 m/s 746 mmHg 65%
    09:00 +31°C° 0 mm 2 m/s 747 mmHg 53%
    10:00 +34°C° 0 mm 2 m/s 747 mmHg 41%
    11:00 +35°C° 0 mm 2 m/s 746 mmHg 39%
    12:00 +36°C° 0 mm 2 m/s 745 mmHg 37%
    13:00 +36°C° 0 mm 2 m/s 744 mmHg 35%
    14:00 +36°C° 0,1 mm 2 m/s 743 mmHg 37%
    15:00 +35°C° 0,1 mm 3 m/s 743 mmHg 38%
    16:00 +35°C° 0,1 mm 3 m/s 742 mmHg 40%
    17:00 +32°C° 0,1 mm 2 m/s 742 mmHg 48%
    18:00 +30°C° 0,1 mm 2 m/s 743 mmHg 55%
    19:00 +28°C° 0,1 mm 2 m/s 743 mmHg 62%
    20:00 +27°C° 0,1 mm 2 m/s 744 mmHg 67%
    21:00 +27°C° 0,1 mm 2 m/s 744 mmHg 71%
    22:00 +26°C° 0,1 mm 2 m/s 744 mmHg 75%
    23:00 +26°C° 0,1 mm 2 m/s 744 mmHg 78%

    24 Février, Samedi

    Heure Température Précipitation Vent Pression Humidité
    00:00 +26°C° 0,1 mm 2 m/s 744 mmHg 80%
    01:00 +26°C° 0,1 mm 2 m/s 744 mmHg 82%
    02:00 +26°C° 0,1 mm 2 m/s 744 mmHg 82%
    03:00 +25°C° 0,1 mm 2 m/s 743 mmHg 83%
    04:00 +25°C° 0,1 mm 2 m/s 743 mmHg 83%
    05:00 +25°C° 0,1 mm 1 m/s 744 mmHg 82%
    06:00 +26°C° 0,1 mm 1 m/s 744 mmHg 80%
    07:00 +26°C° 0,1 mm 1 m/s 745 mmHg 78%
    08:00 +28°C° 0 mm 2 m/s 745 mmHg 68%
    09:00 +31°C° 0 mm 2 m/s 745 mmHg 57%
    10:00 +34°C° 0 mm 2 m/s 746 mmHg 46%
    11:00 +35°C° 0,1 mm 2 m/s 745 mmHg 44%
    12:00 +35°C° 0,1 mm 2 m/s 744 mmHg 41%
    13:00 +36°C° 0,1 mm 2 m/s 743 mmHg 39%
    14:00 +35°C° 0,5 mm 2 m/s 743 mmHg 41%
    15:00 +35°C° 0,5 mm 2 m/s 742 mmHg 42%
    16:00 +34°C° 0,5 mm 2 m/s 741 mmHg 44%
    17:00 +31°C° 0,5 mm 2 m/s 742 mmHg 53%
    18:00 +29°C° 0,5 mm 2 m/s 742 mmHg 61%
    19:00 +28°C° 0,5 mm 2 m/s 743 mmHg 70%
    20:00 +27°C° 0,2 mm 2 m/s 744 mmHg 72%
    21:00 +27°C° 0,2 mm 2 m/s 744 mmHg 75%
    22:00 +26°C° 0,2 mm 2 m/s 745 mmHg 77%
    23:00 +26°C° 0,2 mm 2 m/s 744 mmHg 78%

    25 Février, Dimanche

    Heure Température Précipitation Vent Pression Humidité
    00:00 +26°C° 0,2 mm 2 m/s 744 mmHg 78%
    01:00 +26°C° 0,2 mm 1 m/s 744 mmHg 79%
    02:00 +26°C° 0,1 mm 1 m/s 744 mmHg 79%
    03:00 +26°C° 0,1 mm 1 m/s 744 mmHg 80%
    04:00 +25°C° 0,1 mm 1 m/s 744 mmHg 80%
    05:00 +26°C° 0,1 mm 1 m/s 744 mmHg 79%
    06:00 +26°C° 0,1 mm 1 m/s 745 mmHg 77%
    07:00 +26°C° 0,1 mm 1 m/s 745 mmHg 76%
    08:00 +29°C° 0,1 mm 1 m/s 746 mmHg 66%
    09:00 +31°C° 0,1 mm 1 m/s 746 mmHg 56%
    10:00 +34°C° 0,1 mm 2 m/s 746 mmHg 46%
    11:00 +35°C° 0,3 mm 2 m/s 745 mmHg 44%
    12:00 +36°C° 0,3 mm 2 m/s 744 mmHg 43%
    13:00 +36°C° 0,3 mm 2 m/s 744 mmHg 41%
    14:00 +35°C° 0,7 mm 2 m/s 743 mmHg 43%
    15:00 +35°C° 0,7 mm 2 m/s 742 mmHg 46%
    16:00 +34°C° 0,7 mm 2 m/s 742 mmHg 48%
    17:00 +31°C° 0,8 mm 2 m/s 742 mmHg 55%
    18:00 +30°C° 0,8 mm 2 m/s 743 mmHg 62%
    19:00 +28°C° 0,8 mm 2 m/s 743 mmHg 69%
    20:00 +28°C° 0,5 mm 2 m/s 744 mmHg 71%
    21:00 +27°C° 0,5 mm 2 m/s 744 mmHg 73%
    22:00 +27°C° 0,5 mm 1 m/s 745 mmHg 75%
    23:00 +27°C° 0,2 mm 1 m/s 745 mmHg 76%

    26 Février, Lundi

    Heure Température Précipitation Vent Pression Humidité
    00:00 +26°C° 0,2 mm 1 m/s 744 mmHg 77%
    01:00 +26°C° 0,2 mm 1 m/s 744 mmHg 78%
    02:00 +26°C° 0,1 mm 1 m/s 744 mmHg 78%
    03:00 +26°C° 0,1 mm 1 m/s 744 mmHg 79%
    04:00 +26°C° 0,1 mm 1 m/s 744 mmHg 79%
    05:00 +26°C° 0,1 mm 1 m/s 745 mmHg 78%
    06:00 +26°C° 0,1 mm 1 m/s 745 mmHg 77%
    07:00 +27°C° 0,1 mm 1 m/s 746 mmHg 76%
    08:00 +29°C° 0,1 mm 1 m/s 746 mmHg 67%
    09:00 +31°C° 0,1 mm 1 m/s 746 mmHg 58%
    10:00 +33°C° 0,1 mm 1 m/s 746 mmHg 50%
    11:00 +34°C° 0,2 mm 1 m/s 745 mmHg 47%
    12:00 +36°C° 0,2 mm 2 m/s 744 mmHg 45%
    13:00 +37°C° 0,2 mm 2 m/s 744 mmHg 42%
    14:00 +36°C° 0,6 mm 2 m/s 743 mmHg 43%
    15:00 +36°C° 0,6 mm 2 m/s 742 mmHg 44%
    16:00 +35°C° 0,6 mm 2 m/s 742 mmHg 44%
    17:00 +32°C° 0,5 mm 2 m/s 742 mmHg 52%
    18:00 +30°C° 0,5 mm 1 m/s 742 mmHg 60%
    19:00 +28°C° 0,5 mm 1 m/s 743 mmHg 68%
    20:00 +28°C° 0,2 mm 1 m/s 743 mmHg 71%
    21:00 +27°C° 0,2 mm 1 m/s 744 mmHg 74%
    22:00 +27°C° 0,2 mm 1 m/s 744 mmHg 76%
    23:00 +27°C° 0,1 mm 1 m/s 744 mmHg 77%
    Voir plus